WJA752 CYYC-CYYZ

Flight info

Callsign WJA752
Flight time 3h 14m
Altitude 39000
Route LOMLO Q961 DAPOP DCT UDBOX DCT YQT DCT OTNIK BOXUM7
Aircraft B737/M-SDE2E3FGHIRWXY/LB1

Departure

Time 2026-05-06 01:40
Airport Calgary International Airport (CYYC)

Arrival

Time 2026-05-06 04:54
Airport Toronto Pearson International Airport (CYYZ)
Time Latitude Longitude Altitude Speed Heading
2026-05-06 01:16 51.12902 -114.00756 3558 ft 0 kts 276°
2026-05-06 01:28 51.12901 -114.00750 3558 ft 2 kts 275°
2026-05-06 01:29 51.12902 -114.00721 3558 ft 3 kts 245°
2026-05-06 01:29 51.12913 -114.00700 3555 ft 3 kts 198°
2026-05-06 01:29 51.12921 -114.00697 3555 ft 0 kts 187°
2026-05-06 01:31 51.12905 -114.00689 3558 ft 5 kts 149°
2026-05-06 01:32 51.12875 -114.00648 3558 ft 6 kts 154°
2026-05-06 01:32 51.12835 -114.00642 3558 ft 6 kts 178°
2026-05-06 01:32 51.12795 -114.00640 3558 ft 6 kts 178°
2026-05-06 01:32 51.12735 -114.00640 3558 ft 12 kts 182°
2026-05-06 01:33 51.12640 -114.00647 3558 ft 14 kts 199°
2026-05-06 01:33 51.12613 -114.00802 3558 ft 17 kts 269°
2026-05-06 01:33 51.12612 -114.01004 3558 ft 19 kts 268°
2026-05-06 01:33 51.12603 -114.01228 3558 ft 21 kts 267°
2026-05-06 01:34 51.12598 -114.01435 3558 ft 16 kts 255°
2026-05-06 01:34 51.12522 -114.01558 3558 ft 16 kts 201°
2026-05-06 01:34 51.12415 -114.01568 3556 ft 15 kts 180°
2026-05-06 01:34 51.12303 -114.01567 3558 ft 17 kts 180°
2026-05-06 01:35 51.12184 -114.01572 3556 ft 14 kts 188°
2026-05-06 01:35 51.12094 -114.01624 3558 ft 15 kts 210°
2026-05-06 01:35 51.11988 -114.01719 3558 ft 20 kts 209°
2026-05-06 01:35 51.11850 -114.01796 3558 ft 22 kts 181°
2026-05-06 01:36 51.11699 -114.01795 3558 ft 21 kts 180°
2026-05-06 01:36 51.11552 -114.01797 3556 ft 21 kts 180°
2026-05-06 01:36 51.11403 -114.01797 3557 ft 22 kts 180°
2026-05-06 01:36 51.11243 -114.01797 3557 ft 25 kts 180°
2026-05-06 01:37 51.11066 -114.01798 3558 ft 26 kts 180°
2026-05-06 01:37 51.10883 -114.01797 3558 ft 26 kts 180°
2026-05-06 01:37 51.10712 -114.01798 3558 ft 24 kts 180°
2026-05-06 01:37 51.10551 -114.01798 3558 ft 23 kts 180°
2026-05-06 01:38 51.10396 -114.01798 3559 ft 22 kts 180°
2026-05-06 01:38 51.10245 -114.01798 3558 ft 21 kts 180°
2026-05-06 01:38 51.10145 -114.01799 3558 ft 22 kts 180°
2026-05-06 01:38 51.09937 -114.01799 3556 ft 22 kts 179°
2026-05-06 01:39 51.09836 -114.01799 3556 ft 22 kts 180°
2026-05-06 01:39 51.09704 -114.01828 3558 ft 18 kts 225°
2026-05-06 01:39 51.09690 -114.02015 3559 ft 17 kts 270°
2026-05-06 01:39 51.09718 -114.02144 3560 ft 12 kts 353°
2026-05-06 01:40 51.09874 -114.02140 3560 ft 51 kts 360°
2026-05-06 01:40 51.10778 -114.02141 3556 ft 140 kts 360°
2026-05-06 01:40 51.11514 -114.02125 3666 ft 165 kts
2026-05-06 01:40 51.12709 -114.02135 4333 ft 177 kts
2026-05-06 01:41 51.13927 -114.02142 5242 ft 179 kts
2026-05-06 01:41 51.15209 -114.02105 5894 ft 193 kts
2026-05-06 01:41 51.16581 -114.01902 6484 ft 204 kts 22°
2026-05-06 01:41 51.17689 -114.00443 6932 ft 219 kts 59°
2026-05-06 01:42 51.18127 -113.97999 7282 ft 245 kts 88°
2026-05-06 01:42 51.17810 -113.94876 7696 ft 276 kts 104°
2026-05-06 01:42 51.17237 -113.91887 8452 ft 287 kts 105°
2026-05-06 01:42 51.16608 -113.88827 9284 ft 295 kts 105°
2026-05-06 01:43 51.15969 -113.85681 10104 ft 302 kts 104°
2026-05-06 01:43 51.15318 -113.82397 10548 ft 323 kts 103°
2026-05-06 01:43 51.14628 -113.78826 10765 ft 350 kts 103°
2026-05-06 01:43 51.13903 -113.75027 11245 ft 364 kts 103°
2026-05-06 01:44 51.13161 -113.71133 11981 ft 371 kts 102°
2026-05-06 01:44 51.12410 -113.67180 12849 ft 374 kts 102°
2026-05-06 01:44 51.11656 -113.63198 13689 ft 378 kts 101°
2026-05-06 01:44 51.10892 -113.59161 14459 ft 383 kts 101°
2026-05-06 01:45 51.10120 -113.55087 15265 ft 386 kts 100°
2026-05-06 01:45 51.09340 -113.50972 16105 ft 390 kts 99°
2026-05-06 01:45 51.08552 -113.46825 16907 ft 393 kts 98°
2026-05-06 01:45 51.07756 -113.42641 17691 ft 398 kts 98°
2026-05-06 01:46 51.07008 -113.38402 18438 ft 397 kts 92°
2026-05-06 01:46 51.06645 -113.34080 19097 ft 392 kts 85°
2026-05-06 01:46 51.06434 -113.29794 19739 ft 396 kts 84°
2026-05-06 01:46 51.06206 -113.25403 20363 ft 401 kts 85°
2026-05-06 01:47 51.05951 -113.20968 20991 ft 406 kts 86°
2026-05-06 01:47 51.05658 -113.16474 21603 ft 411 kts 86°
2026-05-06 01:47 51.05336 -113.11870 22211 ft 416 kts 87°
2026-05-06 01:47 51.05011 -113.07344 22792 ft 420 kts 87°
2026-05-06 01:48 51.04675 -113.02711 23379 ft 424 kts 87°
2026-05-06 01:48 51.04332 -112.97967 23929 ft 428 kts 87°
2026-05-06 01:48 51.03995 -112.93314 24402 ft 432 kts 86°
2026-05-06 01:48 51.03645 -112.88499 24884 ft 434 kts 86°
2026-05-06 01:49 51.03298 -112.83727 25399 ft 436 kts 86°
2026-05-06 01:49 51.02951 -112.78979 25872 ft 439 kts 86°
2026-05-06 01:49 51.02597 -112.74149 26334 ft 442 kts 86°
2026-05-06 01:49 51.02240 -112.69290 26780 ft 445 kts 86°
2026-05-06 01:50 51.01878 -112.64399 27219 ft 447 kts 86°
2026-05-06 01:50 51.01512 -112.59479 27658 ft 450 kts 86°
2026-05-06 01:50 51.01142 -112.54535 28090 ft 453 kts 86°
2026-05-06 01:50 51.00767 -112.49562 28511 ft 455 kts 86°
2026-05-06 01:51 51.00387 -112.44554 28912 ft 458 kts 86°
2026-05-06 01:51 51.00004 -112.39529 29299 ft 460 kts 86°
2026-05-06 01:51 50.99616 -112.34467 29673 ft 463 kts 86°
2026-05-06 01:51 50.99224 -112.29388 30064 ft 465 kts 86°
2026-05-06 01:52 50.98828 -112.24284 30398 ft 467 kts 86°
2026-05-06 01:52 50.98427 -112.19160 30726 ft 468 kts 85°
2026-05-06 01:52 50.98023 -112.14038 31152 ft 467 kts 85°
2026-05-06 01:52 50.97617 -112.08942 31617 ft 464 kts 85°
2026-05-06 01:53 50.97212 -112.03870 32039 ft 463 kts 85°
2026-05-06 01:53 50.96807 -111.98801 32419 ft 463 kts 85°
2026-05-06 01:53 50.96401 -111.93735 32789 ft 462 kts 85°
2026-05-06 01:53 50.95994 -111.88686 33173 ft 461 kts 84°
2026-05-06 01:54 50.95586 -111.83651 33554 ft 460 kts 84°
2026-05-06 01:54 50.95176 -111.78622 33916 ft 459 kts 84°
2026-05-06 01:54 50.94765 -111.73602 34273 ft 459 kts 84°
2026-05-06 01:54 50.94351 -111.68583 34564 ft 458 kts 84°
2026-05-06 01:55 50.93937 -111.63579 34854 ft 458 kts 84°
2026-05-06 01:55 50.93520 -111.58561 35117 ft 458 kts 85°
2026-05-06 01:55 50.93102 -111.53558 35377 ft 458 kts 85°
2026-05-06 01:55 50.92687 -111.48617 35627 ft 458 kts 85°
2026-05-06 01:56 50.92390 -111.43634 35889 ft 451 kts 82°
2026-05-06 01:56 50.92218 -111.38687 36131 ft 449 kts 81°
2026-05-06 01:56 50.92092 -111.33743 36357 ft 449 kts 80°
2026-05-06 01:56 50.91977 -111.28791 36577 ft 450 kts 81°
2026-05-06 01:57 50.91854 -111.23838 36812 ft 450 kts 81°
2026-05-06 01:57 50.91720 -111.18882 37045 ft 450 kts 81°
2026-05-06 01:57 50.91574 -111.13918 37249 ft 451 kts 82°
2026-05-06 01:57 50.91420 -111.08943 37454 ft 452 kts 82°
2026-05-06 01:58 50.91259 -111.03962 37684 ft 452 kts 82°
2026-05-06 01:58 50.91095 -110.98989 37918 ft 452 kts 83°
2026-05-06 01:58 50.90928 -110.94011 38127 ft 453 kts 83°
2026-05-06 01:58 50.90759 -110.89027 38326 ft 453 kts 83°
2026-05-06 01:59 50.90588 -110.84035 38510 ft 454 kts 83°
2026-05-06 01:59 50.90415 -110.79035 38692 ft 455 kts 83°
2026-05-06 01:59 50.90240 -110.74036 38889 ft 455 kts 84°
2026-05-06 01:59 50.90063 -110.69036 39060 ft 455 kts 84°
2026-05-06 02:00 50.89883 -110.64030 39197 ft 455 kts 84°
2026-05-06 02:00 50.89702 -110.59009 39207 ft 458 kts 84°
2026-05-06 02:00 50.89332 -110.49009 39219 ft 456 kts 84°
2026-05-06 02:01 50.88952 -110.39014 39215 ft 453 kts 84°
2026-05-06 02:01 50.88568 -110.29070 39217 ft 451 kts 84°
2026-05-06 02:02 50.88178 -110.19156 39220 ft 451 kts 85°
2026-05-06 02:02 50.87780 -110.09243 39222 ft 451 kts 85°
2026-05-06 02:03 50.87372 -109.99309 39218 ft 452 kts 85°
2026-05-06 02:03 50.86938 -109.89354 39226 ft 454 kts 85°
2026-05-06 02:04 50.86490 -109.79422 39226 ft 456 kts 85°
2026-05-06 02:04 50.86030 -109.69392 39221 ft 458 kts 86°
2026-05-06 02:05 50.85561 -109.59322 39217 ft 459 kts 86°
2026-05-06 02:05 50.85083 -109.49233 39216 ft 460 kts 86°
2026-05-06 02:06 50.84595 -109.39130 39214 ft 461 kts 86°
2026-05-06 02:06 50.84097 -109.29012 39207 ft 461 kts 86°
2026-05-06 02:07 50.83592 -109.18899 39210 ft 461 kts 86°
2026-05-06 02:07 50.83078 -109.08797 39211 ft 460 kts 87°
2026-05-06 02:08 50.82556 -108.98708 39209 ft 460 kts 87°
2026-05-06 02:08 50.82026 -108.88634 39207 ft 460 kts 87°
2026-05-06 02:09 50.81487 -108.78568 39210 ft 459 kts 87°
2026-05-06 02:09 50.80941 -108.68509 39204 ft 459 kts 87°
2026-05-06 02:10 50.80389 -108.58518 39203 ft 459 kts 88°
2026-05-06 02:10 50.79826 -108.48469 39205 ft 459 kts 88°
2026-05-06 02:11 50.79254 -108.38419 39201 ft 459 kts 88°
2026-05-06 02:11 50.78672 -108.28360 39203 ft 460 kts 88°
2026-05-06 02:12 50.78081 -108.18285 39204 ft 461 kts 88°
2026-05-06 02:12 50.77582 -108.09900 39209 ft 462 kts 88°
2026-05-06 02:13 50.76969 -107.99723 39206 ft 463 kts 89°
2026-05-06 02:13 50.76353 -107.89655 39199 ft 464 kts 89°
2026-05-06 02:14 50.75723 -107.79510 39196 ft 464 kts 89°
2026-05-06 02:14 50.75084 -107.69366 39201 ft 465 kts 89°
2026-05-06 02:15 50.74434 -107.59199 39203 ft 465 kts 89°
2026-05-06 02:15 50.73776 -107.49033 39200 ft 466 kts 89°
2026-05-06 02:16 50.73109 -107.38865 39206 ft 466 kts 90°
2026-05-06 02:16 50.72433 -107.28705 39207 ft 465 kts 90°
2026-05-06 02:17 50.71748 -107.18552 39214 ft 466 kts 90°
2026-05-06 02:17 50.71054 -107.08386 39205 ft 466 kts 90°
2026-05-06 02:18 50.70351 -106.98221 39203 ft 466 kts 90°
2026-05-06 02:18 50.69639 -106.88065 39204 ft 466 kts 90°
2026-05-06 02:19 50.68923 -106.77973 39200 ft 466 kts 91°
2026-05-06 02:19 50.68194 -106.67821 39200 ft 466 kts 91°
2026-05-06 02:20 50.67084 -106.52602 39204 ft 466 kts 91°
2026-05-06 02:21 50.66332 -106.42457 39204 ft 466 kts 91°
2026-05-06 02:21 50.65572 -106.32310 39199 ft 466 kts 91°
2026-05-06 02:22 50.64802 -106.22167 39202 ft 466 kts 91°
2026-05-06 02:22 50.64023 -106.12016 39196 ft 467 kts 91°
2026-05-06 02:23 50.63235 -106.01873 39198 ft 467 kts 92°
2026-05-06 02:23 50.62439 -105.91728 39196 ft 467 kts 92°
2026-05-06 02:24 50.61633 -105.81587 39195 ft 467 kts 92°
2026-05-06 02:24 50.60818 -105.71442 39196 ft 467 kts 92°
2026-05-06 02:25 50.59993 -105.61288 39195 ft 467 kts 92°
2026-05-06 02:25 50.59161 -105.51148 39200 ft 467 kts 92°
2026-05-06 02:26 50.58319 -105.41014 39203 ft 467 kts 93°
2026-05-06 02:26 50.57473 -105.30934 39194 ft 468 kts 93°
2026-05-06 02:27 50.56613 -105.20793 39204 ft 468 kts 93°
2026-05-06 02:27 50.55739 -105.10588 39181 ft 468 kts 93°
2026-05-06 02:28 50.54861 -105.00451 39160 ft 468 kts 94°
2026-05-06 02:28 50.53973 -104.90316 39141 ft 468 kts 94°
2026-05-06 02:29 50.53077 -104.80183 39127 ft 468 kts 94°
2026-05-06 02:29 50.52178 -104.70115 39111 ft 468 kts 94°
2026-05-06 02:30 50.51265 -104.59993 39115 ft 468 kts 94°
2026-05-06 02:30 50.50343 -104.49871 39123 ft 468 kts 94°
2026-05-06 02:31 50.49412 -104.39752 39133 ft 468 kts 94°
2026-05-06 02:31 50.48471 -104.29632 39147 ft 468 kts 95°
2026-05-06 02:32 50.47522 -104.19518 39165 ft 468 kts 95°
2026-05-06 02:32 50.46565 -104.09412 39176 ft 468 kts 95°
2026-05-06 02:33 50.45599 -103.99309 39175 ft 468 kts 95°
2026-05-06 02:33 50.45277 -103.95963 39176 ft 468 kts 95°
2026-05-06 02:34 50.43637 -103.79087 39171 ft 469 kts 95°
2026-05-06 02:34 50.42648 -103.69035 39168 ft 469 kts 95°
2026-05-06 02:35 50.41645 -103.58930 39166 ft 469 kts 96°
2026-05-06 02:35 50.40632 -103.48817 39167 ft 470 kts 96°
2026-05-06 02:36 50.39610 -103.38703 39166 ft 470 kts 96°
2026-05-06 02:36 50.38578 -103.28583 39159 ft 470 kts 96°
2026-05-06 02:37 50.37537 -103.18470 39161 ft 470 kts 96°
2026-05-06 02:37 50.36487 -103.08355 39150 ft 471 kts 96°
2026-05-06 02:38 50.35427 -102.98239 39155 ft 471 kts 96°
2026-05-06 02:38 50.34359 -102.88124 39150 ft 471 kts 96°
2026-05-06 02:39 50.33282 -102.78018 39155 ft 471 kts 96°
2026-05-06 02:39 50.32194 -102.67899 39151 ft 471 kts 97°
2026-05-06 02:40 50.31098 -102.57781 39147 ft 472 kts 97°
2026-05-06 02:40 50.29992 -102.47667 39146 ft 472 kts 97°
2026-05-06 02:41 50.28885 -102.37626 39140 ft 472 kts 97°
2026-05-06 02:41 50.27762 -102.27516 39143 ft 472 kts 97°
2026-05-06 02:42 50.26628 -102.17405 39139 ft 472 kts 97°
2026-05-06 02:42 50.25486 -102.07297 39140 ft 472 kts 97°
2026-05-06 02:43 50.24336 -101.97198 39138 ft 473 kts 97°
2026-05-06 02:43 50.23175 -101.87088 39139 ft 473 kts 97°
2026-05-06 02:44 50.22005 -101.76980 39135 ft 473 kts 97°
2026-05-06 02:44 50.20825 -101.66863 39134 ft 473 kts 97°
2026-05-06 02:45 50.19637 -101.56759 39133 ft 474 kts 97°
2026-05-06 02:45 50.18446 -101.46715 39130 ft 474 kts 98°
2026-05-06 02:46 50.17239 -101.36608 39125 ft 474 kts 98°
2026-05-06 02:46 50.16021 -101.26496 39124 ft 474 kts 98°
2026-05-06 02:47 50.14795 -101.16383 39120 ft 474 kts 98°
2026-05-06 02:47 50.13560 -101.06280 39119 ft 474 kts 98°
2026-05-06 02:48 50.12317 -100.96187 39117 ft 474 kts 98°
2026-05-06 02:48 50.11063 -100.86087 39121 ft 475 kts 98°
2026-05-06 02:49 50.09802 -100.75998 39117 ft 475 kts 98°
2026-05-06 02:49 50.08530 -100.65903 39117 ft 475 kts 98°
2026-05-06 02:50 50.07260 -100.55892 39115 ft 475 kts 98°
2026-05-06 02:50 50.05970 -100.45797 39114 ft 475 kts 99°
2026-05-06 02:51 50.04672 -100.35718 39098 ft 475 kts 99°
2026-05-06 02:51 50.03365 -100.25636 39083 ft 475 kts 99°
2026-05-06 02:52 50.02050 -100.15567 39073 ft 475 kts 99°
2026-05-06 02:52 50.00727 -100.05494 39056 ft 475 kts 99°
2026-05-06 02:53 49.99431 -99.95487 39045 ft 475 kts 98°
2026-05-06 02:53 49.98257 -99.85385 39050 ft 475 kts 98°
2026-05-06 02:54 49.97106 -99.75260 39064 ft 475 kts 98°
2026-05-06 02:54 49.95933 -99.65152 39075 ft 476 kts 98°
2026-05-06 02:55 49.94737 -99.55039 39094 ft 476 kts 98°
2026-05-06 02:55 49.93528 -99.44928 39108 ft 476 kts 98°
2026-05-06 02:56 49.92309 -99.34817 39116 ft 477 kts 98°
2026-05-06 02:56 49.91080 -99.24695 39117 ft 477 kts 99°
2026-05-06 02:57 49.89850 -99.14640 39116 ft 477 kts 99°
2026-05-06 02:57 49.88604 -99.04525 39111 ft 478 kts 99°
2026-05-06 02:58 49.87347 -98.94407 39113 ft 478 kts 99°
2026-05-06 02:58 49.86082 -98.84293 39112 ft 478 kts 99°
2026-05-06 02:59 49.84808 -98.74186 39109 ft 478 kts 99°
2026-05-06 02:59 49.83741 -98.65782 39107 ft 478 kts 99°
2026-05-06 03:00 49.82449 -98.55671 39107 ft 478 kts 99°
2026-05-06 03:00 49.81150 -98.45572 39109 ft 478 kts 100°
2026-05-06 03:01 49.79841 -98.35479 39106 ft 478 kts 100°
2026-05-06 03:01 49.78523 -98.25383 39109 ft 478 kts 100°
2026-05-06 03:02 49.77196 -98.15294 39104 ft 478 kts 100°
2026-05-06 03:02 49.75859 -98.05201 39105 ft 479 kts 100°
2026-05-06 03:03 49.74514 -97.95120 39100 ft 479 kts 100°
2026-05-06 03:03 49.73159 -97.85036 39097 ft 479 kts 100°
2026-05-06 03:04 49.71795 -97.74955 39100 ft 479 kts 101°
2026-05-06 03:04 49.70422 -97.64873 39089 ft 479 kts 101°
2026-05-06 03:05 49.69041 -97.54804 39083 ft 480 kts 101°
2026-05-06 03:05 49.67649 -97.44727 39068 ft 480 kts 101°
2026-05-06 03:06 49.66258 -97.34725 39064 ft 480 kts 101°
2026-05-06 03:06 49.64848 -97.24655 39062 ft 480 kts 101°
2026-05-06 03:07 49.63429 -97.14585 39065 ft 480 kts 101°
2026-05-06 03:07 49.62000 -97.04519 39066 ft 481 kts 101°
2026-05-06 03:08 49.60561 -96.94443 39073 ft 481 kts 101°
2026-05-06 03:08 49.59112 -96.84368 39066 ft 481 kts 101°
2026-05-06 03:09 49.57655 -96.74303 39071 ft 481 kts 102°
2026-05-06 03:09 49.56198 -96.64308 39070 ft 481 kts 102°
2026-05-06 03:10 49.54723 -96.54249 39066 ft 481 kts 102°
2026-05-06 03:10 49.53240 -96.44202 39069 ft 481 kts 102°
2026-05-06 03:11 49.51747 -96.34155 39068 ft 481 kts 102°
2026-05-06 03:11 49.50245 -96.24114 39066 ft 482 kts 102°
2026-05-06 03:12 49.48733 -96.14067 39065 ft 482 kts 102°
2026-05-06 03:12 49.47214 -96.04037 39066 ft 482 kts 102°
2026-05-06 03:13 49.45684 -95.94002 39065 ft 482 kts 102°
2026-05-06 03:13 49.44146 -95.83968 39068 ft 482 kts 102°
2026-05-06 03:14 49.42598 -95.73941 39066 ft 482 kts 103°
2026-05-06 03:14 49.41042 -95.63922 39062 ft 483 kts 103°
2026-05-06 03:15 49.39475 -95.53897 39063 ft 483 kts 103°
2026-05-06 03:15 49.37899 -95.43873 39060 ft 483 kts 103°
2026-05-06 03:16 49.36324 -95.33918 39064 ft 483 kts 103°
2026-05-06 03:16 49.34729 -95.23890 39059 ft 484 kts 103°
2026-05-06 03:17 49.33123 -95.13863 39055 ft 484 kts 103°
2026-05-06 03:17 49.31510 -95.03852 39052 ft 484 kts 103°
2026-05-06 03:18 49.29887 -94.93837 39046 ft 484 kts 103°
2026-05-06 03:18 49.28255 -94.83826 39043 ft 484 kts 103°
2026-05-06 03:19 49.26614 -94.73820 39035 ft 484 kts 104°
2026-05-06 03:19 49.24964 -94.63820 39030 ft 485 kts 104°
2026-05-06 03:20 49.22472 -94.48826 39020 ft 485 kts 104°
2026-05-06 03:20 49.20798 -94.38828 39012 ft 485 kts 104°
2026-05-06 03:21 49.19128 -94.28906 39005 ft 485 kts 104°
2026-05-06 03:21 49.17436 -94.18919 39002 ft 485 kts 104°
2026-05-06 03:22 49.15735 -94.08934 39000 ft 485 kts 104°
2026-05-06 03:22 49.14026 -93.98956 38998 ft 486 kts 104°
2026-05-06 03:23 49.12307 -93.88980 38998 ft 486 kts 104°
2026-05-06 03:23 49.10578 -93.79002 38993 ft 486 kts 105°
2026-05-06 03:24 49.08841 -93.69036 38992 ft 486 kts 105°
2026-05-06 03:24 49.07106 -93.59134 38989 ft 486 kts 105°
2026-05-06 03:25 49.05351 -93.49179 38988 ft 486 kts 105°
2026-05-06 03:25 49.03585 -93.39214 38985 ft 487 kts 105°
2026-05-06 03:26 49.01810 -93.29253 38988 ft 487 kts 105°
2026-05-06 03:26 49.00028 -93.19307 38985 ft 487 kts 105°
2026-05-06 03:27 48.98234 -93.09349 38981 ft 487 kts 105°
2026-05-06 03:27 48.96430 -92.99393 38976 ft 487 kts 105°
2026-05-06 03:28 48.94631 -92.89517 38979 ft 488 kts 106°
2026-05-06 03:28 48.92811 -92.79577 38981 ft 488 kts 106°
2026-05-06 03:29 48.90979 -92.69627 38974 ft 488 kts 106°
2026-05-06 03:29 48.89141 -92.59699 38977 ft 488 kts 106°
2026-05-06 03:30 48.87293 -92.49771 38969 ft 488 kts 106°
2026-05-06 03:30 48.85435 -92.39844 38967 ft 489 kts 106°
2026-05-06 03:31 48.83568 -92.29922 38969 ft 489 kts 107°
2026-05-06 03:31 48.81706 -92.20073 38966 ft 489 kts 107°
2026-05-06 03:32 48.79820 -92.10153 38967 ft 489 kts 107°
2026-05-06 03:32 48.77928 -92.00253 38963 ft 489 kts 107°
2026-05-06 03:33 48.76023 -91.90339 38959 ft 489 kts 107°
2026-05-06 03:33 48.74111 -91.80438 38954 ft 490 kts 107°
2026-05-06 03:34 48.72191 -91.70545 38956 ft 490 kts 107°
2026-05-06 03:34 48.70256 -91.60632 38951 ft 490 kts 107°
2026-05-06 03:35 48.68317 -91.50746 38948 ft 490 kts 107°
2026-05-06 03:35 48.66380 -91.40919 38944 ft 491 kts 107°
2026-05-06 03:36 48.64420 -91.31031 38943 ft 491 kts 108°
2026-05-06 03:36 48.62452 -91.21145 38943 ft 491 kts 108°
2026-05-06 03:37 48.60472 -91.11257 38938 ft 491 kts 108°
2026-05-06 03:37 48.58482 -91.01366 38934 ft 492 kts 108°
2026-05-06 03:38 48.56485 -90.91487 38934 ft 492 kts 108°
2026-05-06 03:38 48.54477 -90.81607 38929 ft 492 kts 108°
2026-05-06 03:39 48.52461 -90.71733 38934 ft 492 kts 108°
2026-05-06 03:39 48.50433 -90.61856 38929 ft 493 kts 108°
2026-05-06 03:40 48.48410 -90.52049 38932 ft 493 kts 108°
2026-05-06 03:40 48.46366 -90.42186 38929 ft 493 kts 109°
2026-05-06 03:41 48.44310 -90.32318 38925 ft 494 kts 109°
2026-05-06 03:41 48.42244 -90.22447 38930 ft 494 kts 109°
2026-05-06 03:42 48.40168 -90.12579 38924 ft 495 kts 109°
2026-05-06 03:42 48.38082 -90.02708 38929 ft 495 kts 109°
2026-05-06 03:43 48.35985 -89.92835 38922 ft 495 kts 109°
2026-05-06 03:43 48.33880 -89.82973 38923 ft 496 kts 109°
2026-05-06 03:44 48.31764 -89.73105 38917 ft 496 kts 109°
2026-05-06 03:44 48.29651 -89.63296 38909 ft 496 kts 109°
2026-05-06 03:45 48.27518 -89.53440 38899 ft 497 kts 109°
2026-05-06 03:45 48.25366 -89.43584 38904 ft 496 kts 111°
2026-05-06 03:46 48.22788 -89.33982 38901 ft 495 kts 115°
2026-05-06 03:46 48.20012 -89.24520 38901 ft 496 kts 116°
2026-05-06 03:47 48.17235 -89.15051 38904 ft 496 kts 115°
2026-05-06 03:47 48.14487 -89.05559 38901 ft 497 kts 115°
2026-05-06 03:48 48.12211 -88.97670 38899 ft 497 kts 115°
2026-05-06 03:48 48.09461 -88.88160 38904 ft 498 kts 115°
2026-05-06 03:49 48.06705 -88.78669 38905 ft 498 kts 116°
2026-05-06 03:49 48.03934 -88.69173 38899 ft 499 kts 116°
2026-05-06 03:50 48.01151 -88.59672 38899 ft 499 kts 116°
2026-05-06 03:50 47.98380 -88.50249 38906 ft 499 kts 116°
2026-05-06 03:51 47.95580 -88.40766 38903 ft 499 kts 116°
2026-05-06 03:51 47.92770 -88.31285 38903 ft 500 kts 116°
2026-05-06 03:52 47.89950 -88.21807 38899 ft 500 kts 116°
2026-05-06 03:52 47.87120 -88.12332 38898 ft 500 kts 116°
2026-05-06 03:53 47.84285 -88.02877 38903 ft 500 kts 116°
2026-05-06 03:53 47.81441 -87.93426 38904 ft 500 kts 116°
2026-05-06 03:54 47.78588 -87.83983 38903 ft 501 kts 117°
2026-05-06 03:54 47.75742 -87.74597 38903 ft 501 kts 117°
2026-05-06 03:55 47.72870 -87.65163 38901 ft 501 kts 117°
2026-05-06 03:55 47.69986 -87.55725 38901 ft 502 kts 117°
2026-05-06 03:56 47.67094 -87.46298 38900 ft 502 kts 117°
2026-05-06 03:56 47.64191 -87.36869 38901 ft 502 kts 117°
2026-05-06 03:57 47.61280 -87.27451 38900 ft 502 kts 117°
2026-05-06 03:57 47.58359 -87.18034 38903 ft 503 kts 117°
2026-05-06 03:58 47.55452 -87.08700 38904 ft 503 kts 117°
2026-05-06 03:58 47.52514 -86.99298 38908 ft 503 kts 118°
2026-05-06 03:59 47.49568 -86.89908 38907 ft 503 kts 118°
2026-05-06 03:59 47.46615 -86.80528 38908 ft 503 kts 118°
2026-05-06 04:00 47.43649 -86.71144 38907 ft 503 kts 118°
2026-05-06 04:00 47.40696 -86.61836 38905 ft 504 kts 118°
2026-05-06 04:01 47.37716 -86.52475 38908 ft 504 kts 118°
2026-05-06 04:01 47.34723 -86.43112 38909 ft 504 kts 118°
2026-05-06 04:02 47.31723 -86.33758 38909 ft 505 kts 118°
2026-05-06 04:02 47.28713 -86.24408 38908 ft 505 kts 118°
2026-05-06 04:03 47.25696 -86.15069 38905 ft 505 kts 119°
2026-05-06 04:03 47.22666 -86.05725 38908 ft 506 kts 119°
2026-05-06 04:04 47.19629 -85.96395 38920 ft 506 kts 119°
2026-05-06 04:04 47.16581 -85.87063 38912 ft 506 kts 119°
2026-05-06 04:05 47.13544 -85.77800 38911 ft 506 kts 119°
2026-05-06 04:05 47.10480 -85.68485 38908 ft 506 kts 119°
2026-05-06 04:06 47.07409 -85.59186 38913 ft 506 kts 120°
2026-05-06 04:06 47.04332 -85.49900 38910 ft 506 kts 120°
2026-05-06 04:07 47.01246 -85.40623 38913 ft 506 kts 120°
2026-05-06 04:07 46.98148 -85.31341 38909 ft 506 kts 120°
2026-05-06 04:08 46.95050 -85.22094 38909 ft 506 kts 120°
2026-05-06 04:08 46.91946 -85.12858 38906 ft 506 kts 120°
2026-05-06 04:09 46.88835 -85.03637 38913 ft 506 kts 120°
2026-05-06 04:09 46.85715 -84.94422 38913 ft 506 kts 120°
2026-05-06 04:10 46.82590 -84.85224 38910 ft 506 kts 121°
2026-05-06 04:10 46.79475 -84.76087 38916 ft 506 kts 121°
2026-05-06 04:11 46.76331 -84.66901 38910 ft 506 kts 121°
2026-05-06 04:11 46.73178 -84.57717 38901 ft 506 kts 121°
2026-05-06 04:12 46.70020 -84.48551 38901 ft 506 kts 121°
2026-05-06 04:12 46.66855 -84.39396 38901 ft 506 kts 121°
2026-05-06 04:13 46.63680 -84.30246 38899 ft 506 kts 121°
2026-05-06 04:13 46.60495 -84.21097 38895 ft 507 kts 122°
2026-05-06 04:14 46.57325 -84.12022 38902 ft 507 kts 122°
2026-05-06 04:14 46.54125 -84.02895 38898 ft 507 kts 122°
2026-05-06 04:15 46.50915 -83.93767 38910 ft 507 kts 122°
2026-05-06 04:15 46.47698 -83.84651 38906 ft 508 kts 122°
2026-05-06 04:16 46.44468 -83.75530 38912 ft 508 kts 122°
2026-05-06 04:16 46.41231 -83.66416 38912 ft 509 kts 122°
2026-05-06 04:17 46.37640 -83.57736 38920 ft 502 kts 131°
2026-05-06 04:17 46.33517 -83.49608 38920 ft 501 kts 133°
2026-05-06 04:18 46.29375 -83.41474 38918 ft 502 kts 132°
2026-05-06 04:18 46.25304 -83.33265 38921 ft 502 kts 131°
2026-05-06 04:19 46.21257 -83.25042 38922 ft 502 kts 131°
2026-05-06 04:19 46.17198 -83.16830 38920 ft 502 kts 131°
2026-05-06 04:20 46.13134 -83.08640 38920 ft 502 kts 132°
2026-05-06 04:20 46.09063 -83.00469 38927 ft 502 kts 132°
2026-05-06 04:21 46.04980 -82.92306 38912 ft 501 kts 132°
2026-05-06 04:21 46.00901 -82.84172 38896 ft 501 kts 132°
2026-05-06 04:22 45.96819 -82.76051 38885 ft 501 kts 133°
2026-05-06 04:23 45.90716 -82.63952 38882 ft 501 kts 133°
2026-05-06 04:23 45.86621 -82.55859 38887 ft 501 kts 133°
2026-05-06 04:24 45.82519 -82.47781 38887 ft 501 kts 133°
2026-05-06 04:24 45.78403 -82.39706 38883 ft 502 kts 133°
2026-05-06 04:25 45.74283 -82.31641 38885 ft 502 kts 133°
2026-05-06 04:25 45.70156 -82.23580 38892 ft 502 kts 133°
2026-05-06 04:26 45.66020 -82.15524 38846 ft 503 kts 133°
2026-05-06 04:26 45.61849 -82.07433 38901 ft 509 kts 134°
2026-05-06 04:27 45.57027 -82.00191 38901 ft 501 kts 146°
2026-05-06 04:27 45.51829 -81.93538 38906 ft 503 kts 146°
2026-05-06 04:28 45.46683 -81.86854 38898 ft 504 kts 145°
2026-05-06 04:28 45.41558 -81.80035 38898 ft 504 kts 145°
2026-05-06 04:29 45.36458 -81.73226 38900 ft 502 kts 145°
2026-05-06 04:29 45.31362 -81.66457 38900 ft 500 kts 146°
2026-05-06 04:30 45.26282 -81.59735 38895 ft 498 kts 146°
2026-05-06 04:30 45.21235 -81.53078 38899 ft 497 kts 146°
2026-05-06 04:31 45.16164 -81.46405 38903 ft 497 kts 146°
2026-05-06 04:31 45.11093 -81.39749 38911 ft 497 kts 146°
2026-05-06 04:32 45.06022 -81.33108 38907 ft 497 kts 147°
2026-05-06 04:32 45.00933 -81.26460 38872 ft 499 kts 147°
2026-05-06 04:32 44.98361 -81.23113 38623 ft 506 kts 147°
2026-05-06 04:33 44.95770 -81.19743 38351 ft 506 kts 147°
2026-05-06 04:33 44.93189 -81.16380 38057 ft 503 kts 147°
2026-05-06 04:33 44.90623 -81.13039 37777 ft 501 kts 147°
2026-05-06 04:33 44.88063 -81.09714 37503 ft 500 kts 148°
2026-05-06 04:34 44.85504 -81.06397 37227 ft 499 kts 148°
2026-05-06 04:34 44.82948 -81.03089 36960 ft 498 kts 148°
2026-05-06 04:34 44.80397 -80.99793 36692 ft 498 kts 148°
2026-05-06 04:34 44.77884 -80.96549 36155 ft 497 kts 148°
2026-05-06 04:35 44.75339 -80.93269 35465 ft 495 kts 148°
2026-05-06 04:35 44.72797 -80.89995 34662 ft 496 kts 148°
2026-05-06 04:35 44.70247 -80.86719 33705 ft 498 kts 149°
2026-05-06 04:35 44.67684 -80.83429 32676 ft 499 kts 149°
2026-05-06 04:36 44.65128 -80.80144 31728 ft 497 kts 149°
2026-05-06 04:36 44.62581 -80.76876 30753 ft 495 kts 149°
2026-05-06 04:36 44.60037 -80.73621 29695 ft 494 kts 149°
2026-05-06 04:36 44.57502 -80.70382 28804 ft 488 kts 149°
2026-05-06 04:37 44.55016 -80.67199 27992 ft 480 kts 149°
2026-05-06 04:37 44.52569 -80.64070 27243 ft 472 kts 149°
2026-05-06 04:37 44.50156 -80.60994 26483 ft 466 kts 149°
2026-05-06 04:37 44.47772 -80.57962 25719 ft 460 kts 149°
2026-05-06 04:38 44.45418 -80.54975 24981 ft 454 kts 148°
2026-05-06 04:38 44.43090 -80.52024 24249 ft 449 kts 148°
2026-05-06 04:38 44.40792 -80.49114 23515 ft 444 kts 148°
2026-05-06 04:38 44.38510 -80.46229 22649 ft 440 kts 148°
2026-05-06 04:39 44.37014 -80.44338 22126 ft 436 kts 148°
2026-05-06 04:39 44.34031 -80.40566 21127 ft 428 kts 148°
2026-05-06 04:39 44.31864 -80.37833 20399 ft 422 kts 147°
2026-05-06 04:39 44.29696 -80.35101 19675 ft 418 kts 147°
2026-05-06 04:40 44.28245 -80.33274 19187 ft 415 kts 147°
2026-05-06 04:40 44.25422 -80.29725 18232 ft 410 kts 146°
2026-05-06 04:40 44.23991 -80.27929 17662 ft 409 kts 146°
2026-05-06 04:40 44.21891 -80.25290 16884 ft 404 kts 146°
2026-05-06 04:41 44.19817 -80.22684 16249 ft 397 kts 146°
2026-05-06 04:41 44.17778 -80.20126 15560 ft 392 kts 146°
2026-05-06 04:41 44.15786 -80.17629 14875 ft 387 kts 146°
2026-05-06 04:41 44.13795 -80.15131 14194 ft 383 kts 146°
2026-05-06 04:42 44.11963 -80.12439 13859 ft 384 kts 135°
2026-05-06 04:42 44.10550 -80.09274 13617 ft 388 kts 125°
2026-05-06 04:42 44.09451 -80.05762 13356 ft 403 kts 115°
2026-05-06 04:42 44.08705 -80.01963 13097 ft 409 kts 109°
2026-05-06 04:43 44.08044 -79.98127 12817 ft 407 kts 109°
2026-05-06 04:43 44.07401 -79.94297 12425 ft 406 kts 108°
2026-05-06 04:43 44.06754 -79.90474 12042 ft 404 kts 108°
2026-05-06 04:43 44.06117 -79.86756 11652 ft 393 kts 109°
2026-05-06 04:44 44.05486 -79.83120 11278 ft 381 kts 109°
2026-05-06 04:44 44.04865 -79.79589 10892 ft 370 kts 109°
2026-05-06 04:44 44.04258 -79.76165 10517 ft 359 kts 109°
2026-05-06 04:44 44.03674 -79.72880 10358 ft 339 kts 109°
2026-05-06 04:45 44.03123 -79.69782 10284 ft 324 kts 110°
2026-05-06 04:45 44.02582 -79.66766 10234 ft 320 kts 110°
2026-05-06 04:45 44.02039 -79.63729 9940 ft 327 kts 110°
2026-05-06 04:45 44.01491 -79.60676 9542 ft 322 kts 110°
2026-05-06 04:46 44.00958 -79.57711 9100 ft 311 kts 109°
2026-05-06 04:46 44.00431 -79.54841 8604 ft 303 kts 109°
2026-05-06 04:46 43.99892 -79.52034 8084 ft 298 kts 109°
2026-05-06 04:46 43.99342 -79.49291 7578 ft 292 kts 109°
2026-05-06 04:47 43.98641 -79.46690 7011 ft 284 kts 126°
2026-05-06 04:47 43.97447 -79.44555 6491 ft 277 kts 134°
2026-05-06 04:47 43.96162 -79.42576 5928 ft 275 kts 135°
2026-05-06 04:47 43.94886 -79.40688 5479 ft 269 kts 135°
2026-05-06 04:48 43.93589 -79.38815 5014 ft 261 kts 139°
2026-05-06 04:48 43.92074 -79.37629 4513 ft 250 kts 168°
2026-05-06 04:48 43.90417 -79.37663 4162 ft 234 kts 199°
2026-05-06 04:48 43.88950 -79.38577 3910 ft 227 kts 208°
2026-05-06 04:49 43.87567 -79.39588 3655 ft 224 kts 209°
2026-05-06 04:49 43.86201 -79.40618 3396 ft 224 kts 209°
2026-05-06 04:49 43.84843 -79.41679 3145 ft 224 kts 209°
2026-05-06 04:49 43.83567 -79.42920 3046 ft 226 kts 222°
2026-05-06 04:50 43.82459 -79.44476 3016 ft 227 kts 226°
2026-05-06 04:50 43.81391 -79.46061 2997 ft 223 kts 226°
2026-05-06 04:50 43.80344 -79.47599 3010 ft 217 kts 225°
2026-05-06 04:50 43.79314 -79.49099 2992 ft 213 kts 225°
2026-05-06 04:51 43.78318 -79.50546 2980 ft 198 kts 225°
2026-05-06 04:51 43.77414 -79.51862 2889 ft 182 kts 225°
2026-05-06 04:51 43.76585 -79.53067 2689 ft 171 kts 225°
2026-05-06 04:51 43.75774 -79.54244 2464 ft 169 kts 224°
2026-05-06 04:52 43.74958 -79.55431 2238 ft 171 kts 224°
2026-05-06 04:52 43.74140 -79.56622 1998 ft 170 kts 224°
2026-05-06 04:52 43.73329 -79.57803 1770 ft 167 kts 224°
2026-05-06 04:52 43.72571 -79.58911 1569 ft 149 kts 224°
2026-05-06 04:53 43.71872 -79.59917 1312 ft 142 kts 224°
2026-05-06 04:53 43.71200 -79.60896 1111 ft 140 kts 224°
2026-05-06 04:53 43.70524 -79.61879 941 ft 142 kts 225°
2026-05-06 04:53 43.69847 -79.62867 753 ft 141 kts 225°
2026-05-06 04:54 43.69192 -79.63824 580 ft 130 kts 225°
2026-05-06 04:54 43.68636 -79.64633 561 ft 98 kts 226°
2026-05-06 04:54 43.68270 -79.65165 567 ft 55 kts 226°
2026-05-06 04:54 43.68066 -79.65416 563 ft 30 kts 205°
2026-05-06 04:55 43.67894 -79.65488 564 ft 19 kts 180°
2026-05-06 04:55 43.67856 -79.65363 565 ft 18 kts 49°
2026-05-06 04:55 43.67942 -79.65239 564 ft 17 kts 46°
2026-05-06 04:55 43.68024 -79.65119 568 ft 17 kts 46°
2026-05-06 04:56 43.68103 -79.65004 566 ft 16 kts 46°
2026-05-06 04:56 43.68179 -79.64894 570 ft 16 kts 46°
2026-05-06 04:56 43.68252 -79.64787 571 ft 15 kts 46°
2026-05-06 04:56 43.68323 -79.64687 570 ft 15 kts 43°
2026-05-06 04:57 43.68395 -79.64580 570 ft 16 kts 44°
2026-05-06 04:57 43.68478 -79.64465 568 ft 18 kts 47°
2026-05-06 04:57 43.68564 -79.64336 568 ft 18 kts 46°
2026-05-06 04:57 43.68651 -79.64209 570 ft 18 kts 46°
2026-05-06 04:58 43.68735 -79.64088 567 ft 17 kts 46°
2026-05-06 04:58 43.68817 -79.63971 573 ft 17 kts 46°
2026-05-06 04:58 43.68896 -79.63855 572 ft 17 kts 47°
2026-05-06 04:58 43.68979 -79.63734 570 ft 17 kts 46°
2026-05-06 04:59 43.69024 -79.63609 565 ft 15 kts 117°
2026-05-06 04:59 43.68954 -79.63512 564 ft 14 kts 136°
2026-05-06 04:59 43.68883 -79.63419 565 ft 15 kts 136°
2026-05-06 04:59 43.68794 -79.63303 562 ft 19 kts 136°
2026-05-06 05:00 43.68696 -79.63175 561 ft 19 kts 136°
2026-05-06 05:00 43.68602 -79.63049 561 ft 19 kts 137°
2026-05-06 05:00 43.68509 -79.62930 566 ft 18 kts 135°
2026-05-06 05:00 43.68420 -79.62815 565 ft 17 kts 137°
2026-05-06 05:01 43.68331 -79.62699 564 ft 18 kts 136°
2026-05-06 05:01 43.68241 -79.62583 563 ft 17 kts 137°
2026-05-06 05:01 43.68241 -79.62454 564 ft 15 kts 46°
2026-05-06 05:01 43.68294 -79.62332 563 ft 15 kts 70°
2026-05-06 05:02 43.68351 -79.62223 568 ft 12 kts 47°
2026-05-06 05:02 43.68395 -79.62190 564 ft 5 kts 24°
2026-05-06 05:02 43.68417 -79.62158 562 ft 4 kts 71°
2026-05-06 05:02 43.68412 -79.62122 561 ft 4 kts 104°
2026-05-06 05:03 43.68405 -79.62089 561 ft 2 kts 106°
2026-05-06 05:03 43.68402 -79.62075 561 ft 1 kts 107°
2026-05-06 05:03 43.68401 -79.62069 567 ft 0 kts 107°